Flag for China Weather past 2 weeks in Dalian, Liaoning, China

68 °F

Thunderstorms. Passing clouds.

Feels Like: 68 °F
Forecast: 59 / 66 °F
Wind: 10 mph from West

Location: Dalian Airport

Current Time: Oct 8, 2015 at 4:29:20 AM

Latest Report: Oct 8, 2015 at 4:00 AM

Visibility: 5 mi

Pressure: 29.89 "Hg

Humidity: 73%

Dew point: 59 °F

Location of DalianLocation

Historic Weather in Dalian — Graph


Dalian temperature yesterday

Maximum temperature yesterday: 75 °F (at 1:00 PM)
Minimum temperature yesterday: 64 °F (at 1:00 AM)
Average temperature yesterday: 68 °F

Past Weeks' High & Low Weather Summary

High84 °F (Sep 27, 12:30 PM)100% (Oct 1, 5:00 AM)30.39 "Hg (Oct 1, 5:00 AM)
Low50 °F (Oct 2, 4:00 AM)18% (Sep 26, 2:00 PM)29.59 "Hg (Oct 1, 7:30 AM)
Average67 °F63%30.01 "Hg
* Reported Sep 23 3:00 AM — Oct 8 3:30 AM, Dalian, Weather by CustomWeather, © 2015

Note: Actual official high and low records may vary slightly from our data, if they occured in-between our weather recording intervals... More about our weather records


Dalian weather history for previous 24 hours

Time TempWeatherWind HumidityBarometerVisibility
3:30 AM
Thu, Oct 8
68 °FPassing clouds.3 mph69%29.89 "HgN/A
3:00 AM66 °FPassing clouds.6 mph73%29.92 "HgN/A
2:30 AM66 °FPassing clouds.8 mph73%29.92 "HgN/A
2:00 AM64 °FClear.3 mph83%29.95 "Hg5 mi
1:30 AM66 °FClear.1 mph78%29.95 "Hg5 mi
1:00 AM64 °FClear.1 mph83%29.95 "Hg5 mi
12:30 AM64 °FClear.3 mph83%29.98 "Hg5 mi
12:00 AM64 °FClear.1 mph83%29.98 "Hg10 mi
11:30 PM
Wed, Oct 7
64 °FClear.1 mph83%29.98 "Hg5 mi
11:00 PM64 °FClear.1 mph83%29.98 "Hg5 mi
10:30 PM64 °FClear.3 mph88%29.98 "Hg4 mi
10:00 PM64 °FClear.1 mph88%29.98 "Hg4 mi
9:30 PM66 °FClear.1 mph83%29.98 "Hg5 mi
9:00 PM66 °FClear.3 mph83%29.98 "Hg5 mi
8:30 PM66 °FClear.1 mph83%29.98 "Hg5 mi
8:00 PM66 °FClear.6 mph88%29.98 "Hg5 mi
7:30 PM68 °FClear.3 mph78%29.98 "Hg5 mi
7:00 PM68 °FClear.3 mph78%29.98 "Hg5 mi
6:30 PM68 °FClear.3 mph83%29.98 "Hg5 mi
6:00 PM68 °FClear.3 mph83%29.98 "Hg5 mi
5:30 PM68 °FClear.6 mph83%29.98 "Hg5 mi
5:00 PM70 °FClear.6 mph78%29.98 "Hg5 mi
4:30 PM72 °FPassing clouds.6 mph65%29.98 "HgN/A
4:00 PM72 °FPassing clouds.3 mph69%29.98 "HgN/A
3:30 PM72 °FScattered clouds.6 mph73%29.98 "HgN/A
3:00 PM73 °FScattered clouds.8 mph65%29.98 "HgN/A
2:30 PM75 °FScattered clouds.8 mph61%29.98 "HgN/A
2:00 PM73 °FScattered clouds.8 mph65%29.98 "HgN/A
1:30 PM72 °FScattered clouds.6 mph78%29.98 "HgN/A
1:00 PM75 °FScattered clouds.6 mph61%30.01 "HgN/A
12:30 PM73 °FScattered clouds.6 mph65%30.01 "Hg5 mi
12:00 PM72 °FScattered clouds.6 mph69%30.04 "Hg5 mi
11:30 AM72 °FScattered clouds.8 mph69%30.04 "Hg5 mi
11:00 AM72 °FScattered clouds.8 mph73%30.04 "Hg5 mi
10:30 AM73 °FScattered clouds.6 mph69%30.04 "Hg5 mi
10:00 AM72 °FFog.8 mph73%30.07 "Hg3 mi
9:30 AM72 °FFog.6 mph73%30.07 "Hg3 mi
9:00 AM70 °FFog.6 mph83%30.07 "Hg3 mi
8:30 AM68 °FFog.8 mph88%30.04 "Hg2 mi
8:00 AM68 °FFog.6 mph88%30.04 "Hg1 mi
7:30 AM66 °FFog.3 mph94%30.04 "Hg1 mi
7:00 AM66 °FFog.3 mph94%30.04 "Hg1 mi
6:30 AM66 °FFog.1 mph94%30.04 "Hg1 mi
6:00 AM66 °FFog.1 mph94%30.04 "Hg1 mi
5:30 AM64 °FFog.3 mph94%30.04 "Hg1 mi
5:00 AM64 °FFog.1 mph88%30.04 "Hg1 mi
4:30 AM64 °FFog.No wind88%30.04 "Hg1 mi
4:00 AM66 °FFog.3 mph83%30.04 "Hg1 mi
Weather by CustomWeather, © 2015

See weather overviewHow to use our weather pages